FENGYUN 1C DEB, 36274

Orbit data source: Space-Track

FENGYUN 1C DEB, 36274 is space debris in SSO originally from a launch on Mon, 10 May 1999 UTC launched from the Taiyaun Space Center, China (TSC). Fengyun 1C debris stems from the Chinese weather satellite Fengyun-1C, which was intentionally destroyed by a Chinese anti-satellite missile in 2007. This event dramatically increased the amount of space debris, with thousands of trackable fragments posing hazards to satellites and human spaceflight. The Fengyun 1C debris cloud has become a focal point in discussions about space sustainability and the need for international regulations to prevent the creation of new debris.

Loading next visibility...
Identifier
36274, 1999-025DXB
Orbit
SSO
Country
Flag of CNCN / PRC
Related business
Manufacturer
Unknown
Mission
Spacecraft
Bus & Motor
Unknown
Mass
Unknown
Launch date (UTC)
1999-05-10 (27 years ago)
Launch vehicle
Unknown
Launch site
Taiyaun Space Center, China (TSC)
Object type
Payload
Rocket body
Debris
Shape & HBR
Unknown shape, 0.1 m
Radar Cross Section
Small (<0.1 m²)

Expand to show TLE details & history
Last TLE update: 2 weeks ago

TLE from 2 weeks ago
0 FENGYUN 1C DEB
1 36274U 99025DXB 26057.46802294  .00005381  00000-0  22992-2 0  9995
2 36274  99.1337 139.5931 0055806  16.5702  49.0607 14.24582007640630
Epoch: 2026-02-26T11:13Z
TLE epoch observation values (Epoch: 2026-02-26T11:13:57.182Z)
Latitude
64.61566°
Longitude
155.09019°
Altitude
794.831 km
Speed
7.476 km/s
True Right ascension
07h 59m 35s
True Declination
64° 28' 58"
Sunlit
Object was in full shadow at epoch
Visualization orbit readout
Latitude
Unknown
Longitude
Unknown
Altitude
Unknown
Speed
Unknown
Apparent Right ascension
Unknown
Apparent Declination
Unknown
Sunlit
N/A
Visualization observer readout
Local Sidereal Time
02:09:03
Azimuth
Unknown
Elevation
Unknown
Doppler factor
Unknown
Orbital elements
Apogee altitude
847.169 km
Perigee altitude
766.974 km
Semi-major axis
7,185.209 km
Eccentricity
0.00558
Inclination
99.1337°
RAAN
139.5931°
Arg. of periapsis
16.5702°
True anomaly
49.54599°
Mean anomaly
49.0607°
Eccentric anomaly
49.30312°
Mean motion
3.56356 °/min
Orbital period
101.02 mins
BSTAR
0.0022992
Loading maneuver chart data...
Computing Atmospheric mass density...

Documentation

Showing up to 5 results
|